This is the latest recevied weather packets stored in our database for station/object CX5ACA-13. If no packets are shown the sender has not sent any weather packets the latest 10 day(s).
| Time | Temp. | Humidity | Pressure | Rain* | Wind** | Luminosity | Snow |
|---|---|---|---|---|---|---|---|
| 1777670343 | 21.11° C | 78% | 1009.5 hPa | 0 mm | - | 0 W/m² | - |
| 1777670040 | 21.11° C | 78% | 1009.5 hPa | 0 mm | - | 1 W/m² | - |
| 1777669738 | 21.11° C | 77% | 1009.4 hPa | 0 mm | - | 2 W/m² | - |
| 1777669434 | 21.11° C | 77% | 1009.3 hPa | 0 mm | - | 3 W/m² | - |
| 1777669131 | 21.67° C | 75% | 1009.3 hPa | 0 mm | - | 7 W/m² | - |
| 1777668828 | 21.67° C | 74% | 1009.4 hPa | 0 mm | - | 11 W/m² | - |
| 1777668525 | 22.22° C | 74% | 1009.2 hPa | 0 mm | - | 17 W/m² | - |
| 1777668221 | 22.22° C | 73% | 1009.3 hPa | 0 mm | - | 18 W/m² | - |
| 1777667917 | 22.78° C | 71% | 1009.4 hPa | 0 mm | - | 21 W/m² | - |
| 1777667615 | 23.33° C | 69% | 1009.2 hPa | 0 mm | - | 29 W/m² | - |
| 1777667311 | 23.89° C | 68% | 1009.2 hPa | 0 mm | - | 34 W/m² | - |
| 1777667008 | 23.33° C | 69% | 1009.2 hPa | 0 mm | - | 41 W/m² | - |
| 1777666705 | 23.89° C | 68% | 1009 hPa | 0 mm | - | 48 W/m² | - |
| 1777666402 | 23.89° C | 68% | 1009.2 hPa | 0 mm | - | 57 W/m² | - |
| 1777666099 | 23.89° C | 67% | 1008.9 hPa | 0 mm | - | 65 W/m² | - |
| 1777665796 | 23.89° C | 68% | 1009.1 hPa | 0 mm | - | 76 W/m² | - |
| 1777665494 | 23.89° C | 67% | 1009 hPa | 0 mm | - | 85 W/m² | - |
| 1777665189 | 24.44° C | 67% | 1008.8 hPa | 0 mm | - | 97 W/m² | - |
| 1777664885 | 24.44° C | 66% | 1008.7 hPa | 0 mm | - | 108 W/m² | - |
| 1777664581 | 23.89° C | 66% | 1008.9 hPa | 0 mm | - | 122 W/m² | - |
| 1777664278 | 23.89° C | 67% | 1008.8 hPa | 0 mm | - | 135 W/m² | - |
| 1777663976 | 23.89° C | 67% | 1008.8 hPa | 0 mm | - | 148 W/m² | - |
| 1777663673 | 24.44° C | 66% | 1008.6 hPa | 0 mm | - | 162 W/m² | - |
| 1777663370 | 25° C | 66% | 1008.7 hPa | 0 mm | - | 191 W/m² | - |
| 1777663067 | 25° C | 66% | 1008.8 hPa | 0 mm | - | 211 W/m² | - |
* Rain latest hour (hover to see other rain measurements)
** Current wind speed in m/s (hover to see current wind gust speed)